Regional Weather Roundup
Issued by NWS

Home | Current Version | Previous Version | Text Only | Print | Product List | Glossary On
Versions: 1 2 3 4 5 6 7 8 9 10 11 12 13 14 15 16 17 18 19 20 21 22 23 24 25 26 27 28 29 30 31 32 33 34 35 36 37 38 39 40 41 42 43 44 45 46 47 48 49 50
977
ASUS43 KDTX 181510
RWRMI
MICHIGAN HOURLY REGIONAL WEATHER ROUNDUP
NATIONAL WEATHER SERVICE DETROIT/PONTIAC MI
1100 AM EDT FRI AUG 18 2017

NOTE: "FAIR" INDICATES FEW OR NO CLOUDS BELOW 12,000 FEET WITH NO
SIGNIFICANT WEATHER AND/OR OBSTRUCTION TO VISIBILITY.

MIZ047>049-052>055-059>063-066>070-074>076-081>083-181600-
SOUTHEAST LOWER MICHIGAN

CITY           SKY/WX    TMP DP  RH WIND       PRES   REMARKS
ADRIAN         CLOUDY    72  63  73 W10       29.81R
ALMA           CLOUDY    67  62  83 W16G22    29.76R
ANN ARBOR      CLOUDY    73  63  70 SW14      29.78R
BAD AXE        CLOUDY    69  62  80 W15G24    29.70S
CARO           CLOUDY    69  63  81 SW10      29.72R
DETROIT CITY   CLOUDY    74  62  66 W12G22    29.76R
DETROIT        CLOUDY    74  63  68 W20G25    29.77S
FLINT          CLOUDY    68  62  81 W16G25    29.76R
GROSSE ILE     CLOUDY    74  64  69 W15G22    29.76S
HILLSDALE      CLOUDY    70  61  73 W12G18    29.82R
HOWELL         PTSUNNY   70  62  75 W17       29.78R

CITY           SKY/WX    TMP DP  RH WIND       PRES   REMARKS
JACKSON          N/A     69  62  78 SW15      29.80R
LAMBERTVILLE   PTSUNNY   74  64  69 W13G21    29.79S
LANSING        PTSUNNY   71  60  68 W15       29.77S
LAPEER         CLOUDY    71  64  78 W14G26    29.75R
MASON          CLOUDY    68  62  80 W13G21    29.79R
MONROE         PTSUNNY   75  64  69 W15G23    29.78R
MT. CLEMENS    PTSUNNY   73  64  73 W12       29.74R
PONTIAC        DRIZZLE   70  63  78 W24G30    29.76R
PORT HOPE        N/A     69  62  78 W13G25    29.66R
PORT HURON     CLOUDY    75  64  69 W7        29.73S
TRI CITIES     CLOUDY    70  64  81 W18G25    29.73R
MIDLAND        CLOUDY    70  61  73 W12G20    29.71R
TROY           CLOUDY    73  62  69 W13G20    29.78R
SAGINAW HB     PTSUNNY   70  61  73 SW14G22   29.72R
$$
MIZ043>046-050>051-056>058-064>065-071>073-077>080-181600-
SOUTHWEST LOWER MICHIGAN

CITY           SKY/WX    TMP DP  RH WIND       PRES   REMARKS
BATTLE CREEK   CLOUDY    70  63  78 W10       29.82R
BENTON HARBOR  CLOUDY    72  61  68 W14       29.84R
BIG RAPIDS     CLOUDY    64  60  88 W10G20    29.76R FOG
COLDWATER      CLOUDY    70  62  74 W15       29.83R
FREMONT        CLOUDY    67  63  87 W13G18    29.78R
HOLLAND        CLOUDY    70  60  70 W13G21    29.82R
GRAND RAPIDS   CLOUDY    70  62  76 W17G26    29.79R
IONIA          CLOUDY    69  61  76 W15G23    29.77S
KALAMAZOO      CLOUDY    70  61  73 W8        29.83R
LUDINGTON      CLOUDY    67  60  79 NW12G18   29.76R
MARSHALL       CLOUDY    70  64  79 W14       29.81R
MOUNT PLEASANT CLOUDY    71  61  70 SW15G22   29.73R
MUSKEGON       PTSUNNY   73  61  65 W18G26    29.78S
SOUTH HAVEN    CLOUDY    71  61  72 NW12G17   29.83R
$$
MIZ016>042-181600-
NORTHERN LOWER MICHIGAN

CITY           SKY/WX    TMP DP  RH WIND       PRES   REMARKS
ALPENA         CLOUDY    70  64  81 SW10G18   29.61S
BEAVER ISLAND  CLOUDY    64  60  87 NW13G21   29.65R
BELLAIRE       CLOUDY    64  62  93 W6        29.67R FOG
CADILLAC       DRIZZLE   65  62  90 W9        29.72R
CHARLEVOIX     CLOUDY    64  64 100 W17       29.69R
FRANKFORT      CLOUDY    67  63  85 NW12      29.72R
GAYLORD        CLOUDY    62  60  93 W13G18    29.66R FOG
GRAYLING       DRIZZLE   63  61  93 W9        29.69R
HARBOR SPRINGS CLOUDY    63  62  95 W9        29.64R
HOUGHTON LAKE  CLOUDY    66  61  84 W14G28    29.70R
MANISTEE       CLOUDY    66  62  87 W17       29.73R
OSCODA         CLOUDY    70  62  75 W16       29.64R
PELLSTON       CLOUDY    64  62  93 NW16G23   29.62R
ROGERS CITY    CLOUDY    69  64  83 W15G23    29.60R
TRAVERSE CITY  CLOUDY    65  62  90 W9        29.68R
$$
MIZ007>008-015-181600-
EASTERN UPPER MICHIGAN

CITY           SKY/WX    TMP DP  RH WIND       PRES   REMARKS
KINROSS        LGT RAIN  64  63  96 W13G21    29.58R
MACKINAC ISLAN CLOUDY    64  64 100 W12       29.59R
NEWBERRY       CLOUDY    60  59  97 NW15G22   29.62R FOG
S. S. MARIE    LGT RAIN  64  62  93 W12       29.56R FOG
MUNISING         N/A     61 N/A N/A NW21G29   29.67R
$$
MIZ004>006-011>014-085-181600-
CENTRAL UPPER MICHIGAN

CITY           SKY/WX    TMP DP  RH WIND       PRES   REMARKS
MANISTIQUE     CLOUDY    62  56  81 NW15G23   29.65R
ESCANABA       CLOUDY    66  58  75 NW17      29.69R
MENOMINEE      CLOUDY    67  58  72 NW9       29.74R
SAWYER-GWINN   CLOUDY    59  55  88 NW17G23   29.72R
$$
MIZ001>003-009>011-084-181600-
WESTERN UPPER MICHIGAN

CITY           SKY/WX    TMP DP  RH WIND       PRES   REMARKS
IRON MOUNTAIN  CLOUDY    62  54  74 NW17G25   29.74R
HOUGHTON       CLOUDY    59  55  87 NW15      29.75R
COPPER HARBOR    N/A     58  55  90 N22G28    29.69R
IRONWOOD       CLOUDY    62  59  90 NW9       29.83R
$$

ABBREVIATIONS USED IN REMARKS
   TC - TEMPERATURE IN CELSIUS
  WCI - WIND CHILL INDEX
   HX - HEAT INDEX
  VSB - VISIBILITY





USA.gov is the U.S. government's official web portal to all federal, state and local government web resources and services.